Time,TemperatureF,DewpointF,PressureIn,WindDirection,WindDirectionDegrees,WindSpeedMPH,WindSpeedGustMPH,Humidity,HourlyPrecipIn,Conditions,Clouds,dailyrainin,SolarRadiationWatts/m^2,SoftwareType,DateUTC
2013-12-04 00:01:00,41.2,39.1,29.56,SSW,195,0.0,0.0,92,0.00,CLR,,0.00,0.0,WeatherDisplay:10.37,2013-12-04 06:01:00,
2013-12-04 00:06:00,41.7,39.5,29.55,SSW,195,0.0,0.0,92,0.00,CLR,,0.00,0.0,WeatherDisplay:10.37,2013-12-04 06:06:00,
2013-12-04 00:11:00,42.4,40.2,29.56,SSW,195,0.0,0.0,92,0.00,CLR,,0.00,0.0,WeatherDisplay:10.37,2013-12-04 06:11:00,
2013-12-04 00:16:00,42.8,40.6,29.56,SSW,195,0.0,0.0,92,0.00,CLR,,0.00,0.0,WeatherDisplay:10.37,2013-12-04 06:16:00,
2013-12-04 00:21:00,43.3,41.1,29.56,SSW,195,0.0,0.0,92,0.00,CLR,,0.00,0.0,WeatherDisplay:10.37,2013-12-04 06:21:00,
2013-12-04 00:26:00,43.7,41.5,29.55,SSW,195,0.0,0.0,92,0.00,CLR,,0.00,0.0,WeatherDisplay:10.37,2013-12-04 06:26:00,
2013-12-04 00:31:00,43.9,41.7,29.56,SSW,195,0.0,0.0,92,0.00,CLR,,0.00,0.0,WeatherDisplay:10.37,2013-12-04 06:31:00,
2013-12-04 00:36:00,44.0,41.8,29.55,SSW,195,0.0,0.0,92,0.00,CLR,,0.00,0.0,WeatherDisplay:10.37,2013-12-04 06:36:00,
2013-12-04 00:41:00,44.1,41.9,29.55,SSW,195,0.0,0.0,92,0.00,CLR,,0.00,0.0,WeatherDisplay:10.37,2013-12-04 06:41:00,
2013-12-04 00:46:00,44.4,42.2,29.55,SSW,195,0.0,0.0,92,0.00,CLR,,0.00,0.0,WeatherDisplay:10.37,2013-12-04 06:46:00,
2013-12-04 00:51:00,44.4,42.2,29.55,SSW,195,0.0,0.0,92,0.00,CLR,,0.00,0.0,WeatherDisplay:10.37,2013-12-04 06:51:00,
2013-12-04 00:56:00,43.8,41.6,29.54,SSW,195,0.0,0.0,92,0.00,CLR,,0.00,0.0,WeatherDisplay:10.37,2013-12-04 06:56:00,
2013-12-04 01:01:00,42.4,40.0,29.54,SSW,195,0.0,0.0,91,0.00,CLR,,0.00,0.0,WeatherDisplay:10.37,2013-12-04 07:01:00,
2013-12-04 01:06:00,42.4,40.2,29.54,SSW,195,0.0,0.0,92,0.00,CLR,,0.00,0.0,WeatherDisplay:10.37,2013-12-04 07:06:00,
2013-12-04 01:11:00,42.7,40.5,29.54,SSW,195,0.0,0.0,92,0.00,CLR,,0.00,0.0,WeatherDisplay:10.37,2013-12-04 07:11:00,
2013-12-04 01:16:00,42.4,40.2,29.54,SSW,195,0.0,0.0,92,0.00,CLR,,0.00,0.0,WeatherDisplay:10.37,2013-12-04 07:16:00,
2013-12-04 01:21:00,41.5,39.3,29.54,SSW,195,0.0,0.0,92,0.00,CLR,,0.00,0.0,WeatherDisplay:10.37,2013-12-04 07:21:00,
2013-12-04 01:26:00,40.6,38.5,29.54,SSW,195,0.0,0.0,92,0.00,CLR,,0.00,0.0,WeatherDisplay:10.37,2013-12-04 07:26:00,
2013-12-04 01:31:00,39.7,37.6,29.54,SSW,195,0.0,0.0,92,0.00,CLR,,0.00,0.0,WeatherDisplay:10.37,2013-12-04 07:31:00,
2013-12-04 01:36:00,38.8,36.7,29.54,SSW,195,0.0,0.0,92,0.00,CLR,,0.00,0.0,WeatherDisplay:10.37,2013-12-04 07:36:00,
2013-12-04 01:41:00,39.6,37.5,29.54,SSW,195,0.0,0.0,92,0.00,CLR,,0.00,0.0,WeatherDisplay:10.37,2013-12-04 07:41:00,
2013-12-04 01:46:00,40.5,40.0,29.55,SSW,195,0.0,0.0,98,0.00,CLR,,0.00,0.0,WeatherDisplay:10.37,2013-12-04 07:46:00,
2013-12-04 01:51:00,39.7,37.6,29.55,SSW,195,0.0,0.0,92,0.00,CLR,,0.00,0.0,WeatherDisplay:10.37,2013-12-04 07:51:00,
2013-12-04 01:56:00,39.4,37.3,29.55,SSW,195,0.0,0.0,92,0.00,CLR,,0.00,0.0,WeatherDisplay:10.37,2013-12-04 07:56:00,
2013-12-04 02:01:00,39.1,37.0,29.54,SSW,195,0.0,0.0,92,0.00,CLR,,0.00,0.0,WeatherDisplay:10.37,2013-12-04 08:01:00,
2013-12-04 02:06:00,39.0,36.9,29.55,SSW,195,0.0,0.0,92,0.00,CLR,,0.00,0.0,WeatherDisplay:10.37,2013-12-04 08:06:00,
2013-12-04 02:11:00,39.7,37.8,29.55,SSW,195,0.0,0.0,93,0.00,CLR,,0.00,0.0,WeatherDisplay:10.37,2013-12-04 08:11:00,
2013-12-04 02:16:00,39.3,37.4,29.55,SSW,195,0.0,0.0,93,0.00,CLR,,0.00,0.0,WeatherDisplay:10.37,2013-12-04 08:16:00,
2013-12-04 02:21:00,39.6,37.7,29.55,SSW,195,0.0,0.0,93,0.00,CLR,,0.00,0.0,WeatherDisplay:10.37,2013-12-04 08:21:00,
2013-12-04 02:28:00,41.1,39.2,29.55,SSW,195,0.0,0.0,93,0.00,CLR,,0.00,0.0,WeatherDisplay:10.37,2013-12-04 08:28:00,
2013-12-04 02:33:00,41.1,39.2,29.55,SSW,195,0.0,0.0,93,0.00,CLR,,0.00,0.0,WeatherDisplay:10.37,2013-12-04 08:33:00,
2013-12-04 02:38:00,41.0,39.1,29.55,SSW,195,0.0,0.0,93,0.00,CLR,,0.00,0.0,WeatherDisplay:10.37,2013-12-04 08:38:00,
2013-12-04 02:43:00,41.1,39.0,29.55,SSW,195,0.0,0.0,92,0.00,CLR,,0.00,0.0,WeatherDisplay:10.37,2013-12-04 08:43:00,
2013-12-04 02:48:00,41.0,39.1,29.55,SSW,195,0.0,0.0,93,0.00,CLR,,0.00,0.0,WeatherDisplay:10.37,2013-12-04 08:48:00,
2013-12-04 02:53:00,40.6,38.7,29.55,SSW,195,0.0,0.0,93,0.00,CLR,,0.00,0.0,WeatherDisplay:10.37,2013-12-04 08:53:00,
2013-12-04 02:58:00,41.4,39.5,29.55,SSW,195,0.0,0.0,93,0.00,CLR,,0.00,0.0,WeatherDisplay:10.37,2013-12-04 08:58:00,
2013-12-04 03:03:00,42.2,40.3,29.56,SSW,195,0.0,0.0,93,0.00,CLR,,0.00,0.0,WeatherDisplay:10.37,2013-12-04 09:03:00,
2013-12-04 03:08:00,42.3,40.1,29.56,SSW,195,3.5,4.6,92,0.00,CLR,,0.00,0.0,WeatherDisplay:10.37,2013-12-04 09:08:00,
2013-12-04 03:13:00,41.9,39.7,29.56,SSW,195,2.0,3.5,92,0.00,CLR,,0.00,0.0,WeatherDisplay:10.37,2013-12-04 09:13:00,
2013-12-04 03:18:00,41.5,39.3,29.56,SSW,195,0.0,0.0,92,0.00,CLR,,0.00,0.0,WeatherDisplay:10.37,2013-12-04 09:18:00,
2013-12-04 03:23:00,40.3,38.2,29.55,SSW,195,0.0,0.0,92,0.00,CLR,,0.00,0.0,WeatherDisplay:10.37,2013-12-04 09:23:00,
2013-12-04 03:28:00,38.5,36.4,29.56,SSW,195,0.0,0.0,92,0.00,CLR,,0.00,0.0,WeatherDisplay:10.37,2013-12-04 09:28:00,
2013-12-04 03:33:00,37.2,35.1,29.56,SSW,195,0.0,0.0,92,0.00,CLR,,0.00,0.0,WeatherDisplay:10.37,2013-12-04 09:33:00,
2013-12-04 03:38:00,36.6,34.5,29.56,SSW,195,0.0,0.0,92,0.00,CLR,,0.00,0.0,WeatherDisplay:10.37,2013-12-04 09:38:00,
2013-12-04 03:43:00,36.8,34.7,29.56,SSW,195,2.7,4.0,92,0.00,CLR,,0.00,0.0,WeatherDisplay:10.37,2013-12-04 09:43:00,
2013-12-04 03:48:00,37.5,35.4,29.56,SSW,195,0.3,3.5,92,0.00,CLR,,0.00,0.0,WeatherDisplay:10.37,2013-12-04 09:48:00,
2013-12-04 03:53:00,39.6,37.7,29.56,SSW,195,0.0,0.0,93,0.00,CLR,,0.00,0.0,WeatherDisplay:10.37,2013-12-04 09:53:00,
2013-12-04 03:58:00,39.7,37.8,29.57,SSW,195,0.0,0.0,93,0.00,CLR,,0.00,0.0,WeatherDisplay:10.37,2013-12-04 09:58:00,
2013-12-04 04:03:00,39.5,37.6,29.57,SSW,195,0.0,0.0,93,0.00,CLR,,0.00,0.0,WeatherDisplay:10.37,2013-12-04 10:03:00,
2013-12-04 04:08:00,39.2,37.1,29.57,SSW,195,0.0,0.0,92,0.00,CLR,,0.00,0.0,WeatherDisplay:10.37,2013-12-04 10:08:00,
2013-12-04 04:13:00,39.5,37.6,29.57,SSW,195,0.0,0.0,93,0.00,CLR,,0.00,0.0,WeatherDisplay:10.37,2013-12-04 10:13:00,
2013-12-04 04:18:00,39.9,37.8,29.57,SSW,195,0.0,0.0,92,0.00,CLR,,0.00,0.0,WeatherDisplay:10.37,2013-12-04 10:18:00,
2013-12-04 04:23:00,39.6,37.7,29.57,SSW,195,0.0,0.0,93,0.00,CLR,,0.00,0.0,WeatherDisplay:10.37,2013-12-04 10:23:00,
2013-12-04 04:28:00,39.5,37.6,29.57,SSW,195,0.0,0.0,93,0.00,CLR,,0.00,0.0,WeatherDisplay:10.37,2013-12-04 10:28:00,
2013-12-04 04:33:00,39.5,37.6,29.57,SSW,195,0.0,0.0,93,0.00,CLR,,0.00,0.0,WeatherDisplay:10.37,2013-12-04 10:33:00,
2013-12-04 04:38:00,39.6,37.5,29.57,SSW,195,0.0,0.0,92,0.00,CLR,,0.00,0.0,WeatherDisplay:10.37,2013-12-04 10:38:00,
2013-12-04 04:43:00,38.1,36.0,29.57,SSW,195,0.0,0.0,92,0.00,CLR,,0.00,0.0,WeatherDisplay:10.37,2013-12-04 10:43:00,
2013-12-04 04:48:00,37.4,35.3,29.58,SSW,195,0.0,0.0,92,0.00,CLR,,0.00,0.0,WeatherDisplay:10.37,2013-12-04 10:48:00,
2013-12-04 04:53:00,37.2,35.1,29.59,SSW,195,0.0,0.0,92,0.00,CLR,,0.00,0.0,WeatherDisplay:10.37,2013-12-04 10:53:00,
2013-12-04 04:58:00,36.3,34.5,29.59,SSW,195,0.7,3.5,93,0.00,CLR,,0.00,0.0,WeatherDisplay:10.37,2013-12-04 10:58:00,
2013-12-04 05:03:00,36.5,34.7,29.59,SSW,195,0.0,0.0,93,0.00,CLR,,0.00,0.0,WeatherDisplay:10.37,2013-12-04 11:03:00,
2013-12-04 05:08:00,37.8,36.0,29.59,SSW,195,0.0,0.0,93,0.00,CLR,,0.00,0.0,WeatherDisplay:10.37,2013-12-04 11:08:00,
2013-12-04 05:13:00,38.3,36.5,29.59,SSW,195,0.0,0.0,93,0.00,CLR,,0.00,0.0,WeatherDisplay:10.37,2013-12-04 11:13:00,
2013-12-04 05:18:00,38.3,36.5,29.58,SSW,195,0.0,0.0,93,0.00,CLR,,0.00,0.0,WeatherDisplay:10.37,2013-12-04 11:18:00,
2013-12-04 05:23:00,37.8,36.0,29.58,SSW,195,0.0,0.0,93,0.00,CLR,,0.00,0.0,WeatherDisplay:10.37,2013-12-04 11:23:00,
2013-12-04 05:28:00,37.2,35.4,29.59,SSW,195,0.0,0.0,93,0.00,CLR,,0.00,0.0,WeatherDisplay:10.37,2013-12-04 11:28:00,
2013-12-04 05:33:00,36.6,34.8,29.58,SSW,195,0.0,0.0,93,0.00,CLR,,0.00,0.0,WeatherDisplay:10.37,2013-12-04 11:33:00,
2013-12-04 05:38:00,36.5,34.7,29.59,SSW,195,0.0,0.0,93,0.00,CLR,,0.00,0.0,WeatherDisplay:10.37,2013-12-04 11:38:00,
2013-12-04 05:43:00,37.0,35.2,29.59,SSW,195,0.0,0.0,93,0.00,CLR,,0.00,0.0,WeatherDisplay:10.37,2013-12-04 11:43:00,
2013-12-04 05:48:00,37.8,36.0,29.59,SSW,195,3.0,3.5,93,0.00,CLR,,0.00,0.0,WeatherDisplay:10.37,2013-12-04 11:48:00,
2013-12-04 05:53:00,37.9,36.1,29.59,SSW,195,2.9,3.5,93,0.00,CLR,,0.00,0.0,WeatherDisplay:10.37,2013-12-04 11:53:00,
2013-12-04 05:58:00,37.9,36.1,29.59,SSW,195,2.3,3.5,93,0.00,CLR,,0.00,0.0,WeatherDisplay:10.37,2013-12-04 11:58:00,
2013-12-04 06:03:00,37.3,35.5,29.60,SSW,195,0.0,0.0,93,0.00,CLR,,0.00,0.0,WeatherDisplay:10.37,2013-12-04 12:03:00,
2013-12-04 06:08:00,35.3,33.5,29.60,SSW,195,1.9,4.0,93,0.00,CLR,,0.00,0.0,WeatherDisplay:10.37,2013-12-04 12:08:00,
2013-12-04 06:13:00,35.0,33.2,29.61,SSW,195,2.5,3.5,93,0.00,CLR,,0.00,0.0,WeatherDisplay:10.37,2013-12-04 12:13:00,
2013-12-04 06:18:00,35.1,33.3,29.61,SSW,195,2.4,4.0,93,0.00,CLR,,0.00,0.0,WeatherDisplay:10.37,2013-12-04 12:18:00,
2013-12-04 06:23:00,35.2,33.4,29.61,SSW,195,0.2,3.5,93,0.00,CLR,,0.00,0.0,WeatherDisplay:10.37,2013-12-04 12:23:00,
2013-12-04 06:28:00,36.3,34.5,29.61,SSW,195,0.0,0.0,93,0.00,CLR,,0.00,0.0,WeatherDisplay:10.37,2013-12-04 12:28:00,
2013-12-04 06:33:00,35.8,34.0,29.61,SSW,195,0.0,0.0,93,0.00,CLR,,0.00,0.0,WeatherDisplay:10.37,2013-12-04 12:33:00,
2013-12-04 06:38:00,35.5,33.7,29.62,SSW,195,0.4,1.0,93,0.00,CLR,,0.00,0.0,WeatherDisplay:10.37,2013-12-04 12:38:00,
2013-12-04 06:43:00,35.5,33.7,29.62,SSW,195,0.0,0.0,93,0.00,CLR,,0.00,0.0,WeatherDisplay:10.37,2013-12-04 12:43:00,
2013-12-04 06:48:00,35.0,33.2,29.63,SSW,195,0.0,0.0,93,0.00,CLR,,0.00,0.0,WeatherDisplay:10.37,2013-12-04 12:48:00,
2013-12-04 06:53:00,34.6,32.8,29.64,SSW,195,0.0,0.0,93,0.00,CLR,,0.00,0.0,WeatherDisplay:10.37,2013-12-04 12:53:00,
2013-12-04 06:58:00,34.9,33.1,29.65,SSW,195,0.0,0.0,93,0.00,CLR,,0.00,0.0,WeatherDisplay:10.37,2013-12-04 12:58:00,
2013-12-04 07:03:00,34.8,33.0,29.65,SSW,195,0.0,0.0,93,0.00,CLR,,0.00,0.0,WeatherDisplay:10.37,2013-12-04 13:03:00,
2013-12-04 07:08:00,34.3,32.5,29.65,SSW,195,2.4,3.5,93,0.00,CLR,,0.00,0.0,WeatherDisplay:10.37,2013-12-04 13:08:00,
2013-12-04 07:13:00,34.2,32.4,29.65,SSW,195,0.0,0.0,93,0.00,CLR,,0.00,0.0,WeatherDisplay:10.37,2013-12-04 13:13:00,
2013-12-04 07:18:00,34.3,32.5,29.65,SSW,195,0.8,2.3,93,0.00,CLR,,0.00,0.0,WeatherDisplay:10.37,2013-12-04 13:18:00,
2013-12-04 07:23:00,35.7,33.9,29.65,SSW,195,0.0,0.0,93,0.00,CLR,,0.00,0.0,WeatherDisplay:10.37,2013-12-04 13:23:00,
2013-12-04 07:28:00,36.5,34.7,29.65,SSW,195,0.0,0.0,93,0.00,CLR,,0.00,5.5,WeatherDisplay:10.37,2013-12-04 13:28:00,
2013-12-04 07:33:00,37.3,35.5,29.65,SSW,197,1.9,5.0,93,0.00,CLR,,0.00,7.7,WeatherDisplay:10.37,2013-12-04 13:33:00,
2013-12-04 07:38:00,36.1,34.3,29.66,SSW,197,0.0,0.0,93,0.00,CLR,,0.00,13.2,WeatherDisplay:10.37,2013-12-04 13:38:00,
2013-12-04 07:43:00,34.6,32.8,29.66,SSW,197,0.0,0.0,93,0.00,CLR,,0.00,17.6,WeatherDisplay:10.37,2013-12-04 13:43:00,
2013-12-04 07:48:00,35.3,33.5,29.66,SSW,197,0.0,0.0,93,0.00,CLR,,0.00,19.8,WeatherDisplay:10.37,2013-12-04 13:48:00,
2013-12-04 07:53:00,35.0,33.2,29.66,SSW,197,2.7,3.5,93,0.00,CLR,,0.00,20.9,WeatherDisplay:10.37,2013-12-04 13:53:00,
2013-12-04 07:58:00,35.5,33.7,29.66,SSW,197,1.9,3.5,93,0.00,CLR,,0.00,23.1,WeatherDisplay:10.37,2013-12-04 13:58:00,
2013-12-04 08:03:00,36.4,34.6,29.67,SSW,197,1.2,3.5,93,0.00,CLR,,0.00,25.3,WeatherDisplay:10.37,2013-12-04 14:03:00,
2013-12-04 08:08:00,37.5,35.7,29.67,SSW,197,0.2,1.2,93,0.00,CLR,,0.00,27.5,WeatherDisplay:10.37,2013-12-04 14:08:00,
2013-12-04 08:13:00,36.9,35.1,29.67,SSW,197,2.4,3.5,93,0.00,CLR,,0.00,28.6,WeatherDisplay:10.37,2013-12-04 14:13:00,
2013-12-04 08:18:00,36.7,34.9,29.67,SSW,197,3.3,3.5,93,0.00,CLR,,0.00,30.8,WeatherDisplay:10.37,2013-12-04 14:18:00,
2013-12-04 08:23:00,39.2,37.3,29.68,NW,310,6.0,9.2,93,0.00,CLR,,0.00,35.2,WeatherDisplay:10.37,2013-12-04 14:23:00,
2013-12-04 08:28:00,45.4,43.5,29.69,WSW,247,3.6,8.0,93,0.00,CLR,,0.00,51.7,WeatherDisplay:10.37,2013-12-04 14:28:00,
2013-12-04 08:33:00,49.0,45.3,29.69,NW,311,4.2,10.4,87,0.00,CLR,,0.00,63.8,WeatherDisplay:10.37,2013-12-04 14:33:00,
2013-12-04 08:38:00,50.4,42.4,29.69,WNW,292,6.4,11.5,74,0.00,CLR,,0.00,77.0,WeatherDisplay:10.37,2013-12-04 14:38:00,
2013-12-04 08:43:00,50.8,41.4,29.69,WNW,302,9.1,13.8,70,0.00,CLR,,0.00,91.3,WeatherDisplay:10.37,2013-12-04 14:43:00,
2013-12-04 08:48:00,51.1,41.3,29.69,WNW,303,4.8,9.2,69,0.00,SCT,,0.00,114.4,WeatherDisplay:10.37,2013-12-04 14:48:00,
2013-12-04 08:53:00,51.1,41.3,29.70,NNW,342,4.1,8.1,69,0.00,SCT,,0.00,143.0,WeatherDisplay:10.37,2013-12-04 14:53:00,
2013-12-04 08:58:00,50.9,40.7,29.70,NW,314,5.7,9.2,68,0.00,SCT,,0.00,148.5,WeatherDisplay:10.37,2013-12-04 14:58:00,
2013-12-04 09:03:00,50.5,40.7,29.71,NNW,339,6.6,10.4,69,0.00,SCT,,0.00,129.8,WeatherDisplay:10.37,2013-12-04 15:03:00,
2013-12-04 09:08:00,50.0,40.6,29.71,NNW,330,3.3,8.1,70,0.00,SCT,,0.00,100.1,WeatherDisplay:10.37,2013-12-04 15:08:00,
2013-12-04 09:13:00,49.6,40.2,29.72,NW,313,4.6,6.0,70,0.00,SCT,,0.00,68.2,WeatherDisplay:10.37,2013-12-04 15:13:00,
2013-12-04 09:18:00,49.0,39.6,29.72,NW,321,5.5,7.0,70,0.00,CLR,,0.00,46.2,WeatherDisplay:10.37,2013-12-04 15:18:00,
2013-12-04 09:23:00,48.4,39.4,29.72,NW,320,5.6,8.1,71,0.00,CLR,,0.00,50.6,WeatherDisplay:10.37,2013-12-04 15:23:00,
2013-12-04 09:28:00,48.6,40.0,29.72,NNW,334,7.2,9.2,72,0.00,CLR,,0.00,69.3,WeatherDisplay:10.37,2013-12-04 15:28:00,
2013-12-04 09:33:00,49.9,41.6,29.73,NNW,335,6.5,10.4,73,0.00,CLR,,0.00,331.1,WeatherDisplay:10.37,2013-12-04 15:33:00,
2013-12-04 09:38:00,50.1,40.7,29.73,NW,325,6.9,9.2,70,0.00,CLR,,0.00,377.3,WeatherDisplay:10.37,2013-12-04 15:38:00,
2013-12-04 09:43:00,50.3,41.3,29.73,NNW,344,3.6,8.0,71,0.00,CLR,,0.00,390.5,WeatherDisplay:10.37,2013-12-04 15:43:00,
2013-12-04 09:48:00,50.9,42.2,29.73,North,356,4.0,9.0,72,0.00,CLR,,0.00,363.0,WeatherDisplay:10.37,2013-12-04 15:48:00,
2013-12-04 09:53:00,51.1,42.7,29.74,NNW,347,8.3,12.7,73,0.00,CLR,,0.00,415.8,WeatherDisplay:10.37,2013-12-04 15:53:00,
2013-12-04 09:58:00,50.6,42.3,29.74,NNW,336,10.4,12.7,73,0.00,CLR,,0.00,425.7,WeatherDisplay:10.37,2013-12-04 15:58:00,
2013-12-04 10:03:00,50.9,43.3,29.75,NNW,327,9.5,12.7,75,0.00,CLR,,0.00,438.9,WeatherDisplay:10.37,2013-12-04 16:03:00,
2013-12-04 10:08:00,51.0,43.7,29.75,NNW,330,5.5,10.4,76,0.00,CLR,,0.00,392.7,WeatherDisplay:10.37,2013-12-04 16:08:00,
2013-12-04 10:13:00,50.9,42.9,29.75,North,356,9.9,15.0,74,0.00,CLR,,0.00,454.3,WeatherDisplay:10.37,2013-12-04 16:13:00,
2013-12-04 10:18:00,51.3,44.3,29.74,NNW,344,3.9,6.9,77,0.00,CLR,,0.00,477.4,WeatherDisplay:10.37,2013-12-04 16:18:00,
2013-12-04 10:23:00,51.3,43.3,29.74,NW,326,5.6,10.0,74,0.00,CLR,,0.00,500.5,WeatherDisplay:10.37,2013-12-04 16:23:00,
2013-12-04 10:28:00,50.7,42.7,29.75,NW,322,7.1,10.4,74,0.00,CLR,,0.00,127.6,WeatherDisplay:10.37,2013-12-04 16:28:00,
2013-12-04 10:33:00,51.5,43.8,29.75,NW,318,6.6,9.2,75,0.00,CLR,,0.00,523.6,WeatherDisplay:10.37,2013-12-04 16:33:00,
2013-12-04 10:38:00,52.7,44.3,29.75,North,356,4.2,10.4,73,0.00,CLR,,0.00,499.4,WeatherDisplay:10.37,2013-12-04 16:38:00,
2013-12-04 10:43:00,53.3,43.8,29.75,NNW,339,3.7,6.9,70,0.00,CLR,,0.00,382.8,WeatherDisplay:10.37,2013-12-04 16:43:00,
2013-12-04 10:48:00,53.0,43.5,29.75,WNW,299,4.1,6.9,70,0.00,CLR,,0.00,425.7,WeatherDisplay:10.37,2013-12-04 16:48:00,
2013-12-04 10:53:00,53.4,44.6,29.75,WNW,301,3.5,3.5,72,0.00,CLR,,0.00,507.1,WeatherDisplay:10.37,2013-12-04 16:53:00,
2013-12-04 10:58:00,53.6,44.4,29.75,WNW,301,0.0,1.0,71,0.00,CLR,,0.00,394.9,WeatherDisplay:10.37,2013-12-04 16:58:00,
2013-12-04 11:03:00,53.9,44.3,29.75,NW,306,2.1,3.5,70,0.00,CLR,,0.00,535.7,WeatherDisplay:10.37,2013-12-04 17:03:00,
2013-12-04 11:08:00,53.9,44.0,29.75,NNW,332,0.9,2.3,69,0.00,CLR,,0.00,303.6,WeatherDisplay:10.37,2013-12-04 17:08:00,
2013-12-04 11:13:00,52.6,42.7,29.75,NNW,340,1.9,4.6,69,0.00,CLR,,0.00,413.6,WeatherDisplay:10.37,2013-12-04 17:13:00,
2013-12-04 11:18:00,53.5,44.3,29.75,NNW,330,3.8,6.9,71,0.00,CLR,,0.00,586.3,WeatherDisplay:10.37,2013-12-04 17:18:00,
2013-12-04 11:23:00,54.7,44.7,29.75,NW,325,2.0,4.0,69,0.00,CLR,,0.00,584.1,WeatherDisplay:10.37,2013-12-04 17:23:00,
2013-12-04 11:28:00,54.5,44.2,29.75,NE,35,5.7,8.1,68,0.00,CLR,,0.00,602.8,WeatherDisplay:10.37,2013-12-04 17:28:00,
2013-12-04 11:33:00,54.0,43.3,29.75,North,6,5.5,9.2,67,0.00,CLR,,0.00,609.4,WeatherDisplay:10.37,2013-12-04 17:33:00,
2013-12-04 11:38:00,54.7,44.3,29.75,NW,312,2.3,3.5,68,0.00,CLR,,0.00,561.0,WeatherDisplay:10.37,2013-12-04 17:38:00,
2013-12-04 11:43:00,55.1,43.5,29.75,North,356,4.6,10.0,65,0.00,CLR,,0.00,554.4,WeatherDisplay:10.37,2013-12-04 17:43:00,
2013-12-04 11:48:00,54.3,42.8,29.75,NNE,18,5.7,11.5,65,0.00,CLR,,0.00,586.3,WeatherDisplay:10.37,2013-12-04 17:48:00,
2013-12-04 11:53:00,54.6,43.1,29.75,NNE,17,5.1,9.2,65,0.00,CLR,,0.00,587.4,WeatherDisplay:10.37,2013-12-04 17:53:00,
2013-12-04 11:58:00,54.8,43.7,29.75,NNE,16,3.2,5.8,66,0.00,CLR,,0.00,587.4,WeatherDisplay:10.37,2013-12-04 17:58:00,
2013-12-04 12:03:00,55.7,44.1,29.75,NNW,334,0.3,2.3,65,0.00,CLR,,0.00,581.9,WeatherDisplay:10.37,2013-12-04 18:03:00,
2013-12-04 12:08:00,56.0,43.6,29.75,NNW,334,0.9,3.5,63,0.00,CLR,,0.00,576.4,WeatherDisplay:10.37,2013-12-04 18:08:00,
2013-12-04 12:13:00,55.9,43.9,29.75,NNW,340,3.7,6.9,64,0.00,CLR,,0.00,668.8,WeatherDisplay:10.37,2013-12-04 18:13:00,
2013-12-04 12:18:00,56.0,43.6,29.74,NNW,330,3.2,8.0,63,0.00,CLR,,0.00,617.1,WeatherDisplay:10.37,2013-12-04 18:18:00,
2013-12-04 12:23:00,55.7,42.9,29.74,NNW,328,2.0,4.0,62,0.00,CLR,,0.00,645.7,WeatherDisplay:10.37,2013-12-04 18:23:00,
2013-12-04 12:28:00,56.4,43.1,29.73,NNW,347,4.8,9.2,61,0.00,CLR,,0.00,587.4,WeatherDisplay:10.37,2013-12-04 18:28:00,
2013-12-04 12:33:00,56.1,42.8,29.73,NNW,347,7.1,10.4,61,0.00,CLR,,0.00,624.8,WeatherDisplay:10.37,2013-12-04 18:33:00,
2013-12-04 12:38:00,55.4,42.6,29.73,NE,39,4.4,6.9,62,0.00,CLR,,0.00,553.3,WeatherDisplay:10.37,2013-12-04 18:38:00,
2013-12-04 12:43:00,56.0,44.0,29.73,North,1,3.3,6.9,64,0.00,CLR,,0.00,570.9,WeatherDisplay:10.37,2013-12-04 18:43:00,
2013-12-04 12:48:00,56.1,43.7,29.74,NE,36,0.5,3.5,63,0.00,CLR,,0.00,551.1,WeatherDisplay:10.37,2013-12-04 18:48:00,
2013-12-04 12:53:00,56.0,43.2,29.74,North,349,5.0,11.5,62,0.00,CLR,,0.00,518.1,WeatherDisplay:10.37,2013-12-04 18:53:00,
2013-12-04 12:58:00,55.1,42.7,29.74,NNE,18,3.2,5.8,63,0.00,CLR,,0.00,543.4,WeatherDisplay:10.37,2013-12-04 18:58:00,
2013-12-04 13:03:00,55.8,43.8,29.74,NNE,18,1.9,4.0,64,0.00,CLR,,0.00,570.9,WeatherDisplay:10.37,2013-12-04 19:03:00,
2013-12-04 13:08:00,55.7,42.5,29.75,NNE,25,5.9,8.1,61,0.00,CLR,,0.00,566.5,WeatherDisplay:10.37,2013-12-04 19:08:00,
2013-12-04 13:13:00,55.7,42.9,29.75,NNW,345,3.4,7.0,62,0.00,CLR,,0.00,558.8,WeatherDisplay:10.37,2013-12-04 19:13:00,
2013-12-04 13:18:00,55.8,43.4,29.75,North,356,3.3,8.1,63,0.00,CLR,,0.00,537.9,WeatherDisplay:10.37,2013-12-04 19:18:00,
2013-12-04 13:23:00,55.8,43.0,29.75,North,356,3.2,7.0,62,0.00,CLR,,0.00,533.5,WeatherDisplay:10.37,2013-12-04 19:23:00,
2013-12-04 13:28:00,56.2,42.9,29.75,North,356,5.9,9.2,61,0.00,CLR,,0.00,525.8,WeatherDisplay:10.37,2013-12-04 19:28:00,
2013-12-04 13:33:00,55.9,42.2,29.75,NW,326,5.9,8.1,60,0.00,CLR,,0.00,535.7,WeatherDisplay:10.37,2013-12-04 19:33:00,
2013-12-04 13:38:00,56.6,43.3,29.75,NNW,331,4.5,8.1,61,0.00,CLR,,0.00,541.2,WeatherDisplay:10.37,2013-12-04 19:38:00,
2013-12-04 13:43:00,56.5,42.8,29.75,NW,326,7.4,10.4,60,0.00,CLR,,0.00,451.0,WeatherDisplay:10.37,2013-12-04 19:43:00,
2013-12-04 13:48:00,56.2,42.9,29.74,NNE,23,5.6,9.2,61,0.00,CLR,,0.00,253.0,WeatherDisplay:10.37,2013-12-04 19:48:00,
2013-12-04 13:53:00,55.6,42.4,29.75,North,356,3.7,6.9,61,0.00,CLR,,0.00,508.2,WeatherDisplay:10.37,2013-12-04 19:53:00,
2013-12-04 13:58:00,55.7,42.5,29.75,North,6,6.1,9.0,61,0.00,CLR,,0.00,508.2,WeatherDisplay:10.37,2013-12-04 19:58:00,
2013-12-04 14:03:00,55.8,42.5,29.75,NE,41,4.6,10.4,61,0.00,CLR,,0.00,433.4,WeatherDisplay:10.37,2013-12-04 20:03:00,
2013-12-04 14:08:00,55.5,41.8,29.75,NE,36,4.8,8.1,60,0.00,CLR,,0.00,363.0,WeatherDisplay:10.37,2013-12-04 20:08:00,
2013-12-04 14:13:00,55.3,42.1,29.75,NNE,31,4.2,10.0,61,0.00,CLR,,0.00,396.0,WeatherDisplay:10.37,2013-12-04 20:13:00,
2013-12-04 14:18:00,55.2,41.5,29.74,NNE,32,4.3,9.0,60,0.00,CLR,,0.00,531.3,WeatherDisplay:10.37,2013-12-04 20:18:00,
2013-12-04 14:23:00,55.7,42.0,29.75,NNW,337,6.6,9.2,60,0.00,CLR,,0.00,489.5,WeatherDisplay:10.37,2013-12-04 20:23:00,
2013-12-04 14:28:00,55.7,41.1,29.75,North,351,6.7,9.2,58,0.00,CLR,,0.00,446.6,WeatherDisplay:10.37,2013-12-04 20:28:00,
2013-12-04 14:33:00,55.4,41.3,29.75,North,6,5.8,11.5,59,0.00,CLR,,0.00,290.4,WeatherDisplay:10.37,2013-12-04 20:33:00,
2013-12-04 14:38:00,54.7,40.6,29.75,NNW,328,4.5,8.1,59,0.00,CLR,,0.00,158.4,WeatherDisplay:10.37,2013-12-04 20:38:00,
2013-12-04 14:43:00,54.8,40.3,29.75,NNE,12,3.5,5.8,58,0.00,CLR,,0.00,89.1,WeatherDisplay:10.37,2013-12-04 20:43:00,
2013-12-04 14:48:00,54.5,40.0,29.74,North,1,3.3,9.2,58,0.00,CLR,,0.00,139.7,WeatherDisplay:10.37,2013-12-04 20:48:00,
2013-12-04 14:53:00,54.2,40.2,29.74,NNE,15,4.3,6.9,59,0.00,CLR,,0.00,86.9,WeatherDisplay:10.37,2013-12-04 20:53:00,
2013-12-04 14:58:00,54.3,40.3,29.74,North,6,2.1,3.5,59,0.00,CLR,,0.00,75.9,WeatherDisplay:10.37,2013-12-04 20:58:00,
2013-12-04 15:03:00,54.7,40.2,29.74,North,1,4.6,9.2,58,0.00,CLR,,0.00,91.3,WeatherDisplay:10.37,2013-12-04 21:03:00,
2013-12-04 15:08:00,54.5,40.0,29.75,NNW,342,8.0,12.7,58,0.00,CLR,,0.00,68.2,WeatherDisplay:10.37,2013-12-04 21:08:00,
2013-12-04 15:13:00,54.7,39.8,29.75,North,356,8.6,11.5,57,0.00,CLR,,0.00,66.0,WeatherDisplay:10.37,2013-12-04 21:13:00,
2013-12-04 15:18:00,54.6,39.7,29.75,North,356,6.0,12.0,57,0.00,CLR,,0.00,66.0,WeatherDisplay:10.37,2013-12-04 21:18:00,
2013-12-04 15:23:00,54.3,39.4,29.75,NNW,344,7.8,11.5,57,0.00,CLR,,0.00,66.0,WeatherDisplay:10.37,2013-12-04 21:23:00,
2013-12-04 15:28:00,54.3,39.8,29.75,North,1,7.3,12.0,58,0.00,CLR,,0.00,73.7,WeatherDisplay:10.37,2013-12-04 21:28:00,
2013-12-04 15:33:00,54.1,39.6,29.75,North,356,3.1,4.6,58,0.00,CLR,,0.00,71.5,WeatherDisplay:10.37,2013-12-04 21:33:00,
2013-12-04 15:38:00,54.0,39.5,29.76,North,6,5.8,9.2,58,0.00,CLR,,0.00,94.6,WeatherDisplay:10.37,2013-12-04 21:38:00,
2013-12-04 15:43:00,53.8,39.4,29.76,North,6,6.0,9.2,58,0.00,CLR,,0.00,69.3,WeatherDisplay:10.37,2013-12-04 21:43:00,
2013-12-04 15:48:00,53.7,39.3,29.76,North,10,4.5,6.9,58,0.00,CLR,,0.00,58.3,WeatherDisplay:10.37,2013-12-04 21:48:00,
2013-12-04 15:53:00,53.6,39.6,29.77,North,356,3.5,7.0,59,0.00,CLR,,0.00,51.7,WeatherDisplay:10.37,2013-12-04 21:53:00,
2013-12-04 15:58:00,53.5,39.1,29.77,NNW,343,2.2,3.5,58,0.00,CLR,,0.00,46.2,WeatherDisplay:10.37,2013-12-04 21:58:00,
2013-12-04 16:03:00,53.2,38.8,29.77,North,351,3.9,4.6,58,0.00,CLR,,0.00,40.7,WeatherDisplay:10.37,2013-12-04 22:03:00,
2013-12-04 16:08:00,53.1,39.1,29.78,North,351,3.6,5.8,59,0.00,CLR,,0.00,53.9,WeatherDisplay:10.37,2013-12-04 22:08:00,
2013-12-04 16:13:00,53.1,38.7,29.77,North,6,2.5,5.8,58,0.00,CLR,,0.00,61.6,WeatherDisplay:10.37,2013-12-04 22:13:00,
2013-12-04 16:18:00,52.9,38.5,29.77,North,1,2.2,5.8,58,0.00,CLR,,0.00,59.4,WeatherDisplay:10.37,2013-12-04 22:18:00,
2013-12-04 16:23:00,52.8,39.3,29.78,North,1,2.2,3.5,60,0.00,CLR,,0.00,51.7,WeatherDisplay:10.37,2013-12-04 22:23:00,
2013-12-04 16:28:00,52.8,38.4,29.79,North,356,5.6,8.1,58,0.00,CLR,,0.00,46.2,WeatherDisplay:10.37,2013-12-04 22:28:00,
2013-12-04 16:33:00,52.6,38.2,29.78,North,1,4.6,8.1,58,0.00,CLR,,0.00,42.9,WeatherDisplay:10.37,2013-12-04 22:33:00,
2013-12-04 16:38:00,52.3,38.4,29.78,NNW,341,1.6,5.0,59,0.00,CLR,,0.00,40.7,WeatherDisplay:10.37,2013-12-04 22:38:00,
2013-12-04 16:43:00,51.9,38.4,29.79,North,356,4.7,9.2,60,0.00,CLR,,0.00,35.2,WeatherDisplay:10.37,2013-12-04 22:43:00,
2013-12-04 16:48:00,51.4,38.4,29.79,NNW,343,5.9,9.2,61,0.00,CLR,,0.00,20.9,WeatherDisplay:10.37,2013-12-04 22:48:00,
2013-12-04 16:53:00,51.1,38.5,29.79,NNW,348,2.7,5.8,62,0.00,CLR,,0.00,13.2,WeatherDisplay:10.37,2013-12-04 22:53:00,
2013-12-04 16:58:00,50.7,38.6,29.79,North,356,6.0,9.2,63,0.00,CLR,,0.00,9.9,WeatherDisplay:10.37,2013-12-04 22:58:00,
2013-12-04 17:03:00,50.2,38.1,29.80,North,349,6.4,10.4,63,0.00,CLR,,0.00,7.7,WeatherDisplay:10.37,2013-12-04 23:03:00,
2013-12-04 17:08:00,50.2,38.1,29.79,North,1,2.5,3.5,63,0.00,CLR,,0.00,5.5,WeatherDisplay:10.37,2013-12-04 23:08:00,
2013-12-04 17:13:00,49.8,37.7,29.79,NNW,343,7.3,12.7,63,0.00,CLR,,0.00,0.0,WeatherDisplay:10.37,2013-12-04 23:13:00,
2013-12-04 17:18:00,49.3,37.6,29.80,North,350,7.8,12.7,64,0.00,CLR,,0.00,0.0,WeatherDisplay:10.37,2013-12-04 23:18:00,
2013-12-04 17:23:00,49.0,37.3,29.80,NNW,343,6.5,10.4,64,0.00,CLR,,0.00,0.0,WeatherDisplay:10.37,2013-12-04 23:23:00,
2013-12-04 17:28:00,48.5,36.9,29.80,North,1,4.3,10.4,64,0.00,CLR,,0.00,0.0,WeatherDisplay:10.37,2013-12-04 23:28:00,
2013-12-04 17:33:00,48.2,36.6,29.81,North,6,6.4,12.7,64,0.00,CLR,,0.00,0.0,WeatherDisplay:10.37,2013-12-04 23:33:00,
2013-12-04 17:38:00,47.9,36.3,29.81,NNW,347,4.7,8.1,64,0.00,CLR,,0.00,0.0,WeatherDisplay:10.37,2013-12-04 23:38:00,
2013-12-04 17:43:00,47.5,36.3,29.81,North,356,5.5,9.2,65,0.00,CLR,,0.00,0.0,WeatherDisplay:10.37,2013-12-04 23:43:00,
2013-12-04 17:48:00,47.3,36.1,29.82,North,350,5.3,8.1,65,0.00,CLR,,0.00,0.0,WeatherDisplay:10.37,2013-12-04 23:48:00,
2013-12-04 17:53:00,47.1,36.3,29.82,NNW,331,8.1,11.5,66,0.00,CLR,,0.00,0.0,WeatherDisplay:10.37,2013-12-04 23:53:00,
2013-12-04 17:58:00,46.9,36.1,29.81,North,6,6.9,10.4,66,0.00,CLR,,0.00,0.0,WeatherDisplay:10.37,2013-12-04 23:58:00,
2013-12-04 18:03:00,46.8,36.0,29.82,North,356,7.0,12.7,66,0.00,CLR,,0.00,0.0,WeatherDisplay:10.37,2013-12-05 00:03:00,
2013-12-04 18:08:00,46.7,35.9,29.83,North,1,6.4,11.5,66,0.00,CLR,,0.00,0.0,WeatherDisplay:10.37,2013-12-05 00:08:00,
2013-12-04 18:13:00,46.5,35.7,29.82,North,350,8.8,11.5,66,0.00,CLR,,0.00,0.0,WeatherDisplay:10.37,2013-12-05 00:13:00,
2013-12-04 18:18:00,46.3,35.6,29.82,North,6,8.2,13.8,66,0.00,CLR,,0.00,0.0,WeatherDisplay:10.37,2013-12-05 00:18:00,
2013-12-04 18:23:00,46.0,35.7,29.83,North,10,5.5,13.8,67,0.00,CLR,,0.00,0.0,WeatherDisplay:10.37,2013-12-05 00:23:00,
2013-12-04 18:28:00,45.9,35.6,29.83,North,356,4.8,8.1,67,0.00,CLR,,0.00,0.0,WeatherDisplay:10.37,2013-12-05 00:28:00,
2013-12-04 18:33:00,45.7,35.4,29.83,North,351,6.6,11.0,67,0.00,CLR,,0.00,0.0,WeatherDisplay:10.37,2013-12-05 00:33:00,
2013-12-04 18:38:00,45.6,35.6,29.83,North,10,7.2,13.8,68,0.00,CLR,,0.00,0.0,WeatherDisplay:10.37,2013-12-05 00:38:00,
2013-12-04 18:43:00,45.4,35.5,29.84,NNE,29,6.3,11.5,68,0.00,CLR,,0.00,0.0,WeatherDisplay:10.37,2013-12-05 00:43:00,
2013-12-04 18:48:00,45.1,35.2,29.84,North,1,3.7,8.1,68,0.00,CLR,,0.00,0.0,WeatherDisplay:10.37,2013-12-05 00:48:00,
2013-12-04 18:53:00,44.7,35.1,29.84,North,1,6.3,10.4,69,0.00,CLR,,0.00,0.0,WeatherDisplay:10.37,2013-12-05 00:53:00,
2013-12-04 18:58:00,44.7,35.1,29.85,NNE,19,2.1,5.0,69,0.00,CLR,,0.00,0.0,WeatherDisplay:10.37,2013-12-05 00:58:00,
2013-12-04 19:03:00,44.5,35.3,29.85,NNE,14,4.6,9.2,70,0.00,CLR,,0.00,0.0,WeatherDisplay:10.37,2013-12-05 01:03:00,
2013-12-04 19:08:00,44.6,35.4,29.85,NNE,15,6.5,11.5,70,0.00,CLR,,0.00,0.0,WeatherDisplay:10.37,2013-12-05 01:08:00,
2013-12-04 19:13:00,44.2,35.4,29.85,NNE,27,4.6,8.0,71,0.00,CLR,,0.00,0.0,WeatherDisplay:10.37,2013-12-05 01:13:00,
2013-12-04 19:18:00,44.1,34.9,29.85,NNE,33,12.1,17.3,70,0.00,CLR,,0.00,0.0,WeatherDisplay:10.37,2013-12-05 01:18:00,
2013-12-04 19:23:00,43.9,34.0,29.85,NE,37,12.6,19.6,68,0.00,CLR,,0.00,0.0,WeatherDisplay:10.37,2013-12-05 01:23:00,
2013-12-04 19:28:00,43.6,33.7,29.86,NNE,14,7.5,11.5,68,0.00,CLR,,0.00,0.0,WeatherDisplay:10.37,2013-12-05 01:28:00,
2013-12-04 19:33:00,43.3,33.8,29.86,NNE,20,9.0,12.7,69,0.00,CLR,,0.00,0.0,WeatherDisplay:10.37,2013-12-05 01:33:00,
2013-12-04 19:38:00,43.0,33.9,29.86,North,356,7.1,19.6,70,0.00,CLR,,0.00,0.0,WeatherDisplay:10.37,2013-12-05 01:38:00,
2013-12-04 19:43:00,42.7,33.2,29.86,NE,55,9.3,19.0,69,0.00,CLR,,0.00,0.0,WeatherDisplay:10.37,2013-12-05 01:43:00,
2013-12-04 19:48:00,42.5,33.4,29.87,ENE,69,7.6,12.7,70,0.00,CLR,,0.00,0.0,WeatherDisplay:10.37,2013-12-05 01:48:00,
2013-12-04 19:53:00,42.3,33.2,29.87,NNE,18,6.3,17.0,70,0.00,CLR,,0.00,0.0,WeatherDisplay:10.37,2013-12-05 01:53:00,
2013-12-04 19:58:00,42.1,33.0,29.88,NNE,22,13.7,24.2,70,0.00,CLR,,0.00,0.0,WeatherDisplay:10.37,2013-12-05 01:58:00,
2013-12-04 20:03:00,41.8,32.7,29.88,NNE,18,8.4,18.4,70,0.00,CLR,,0.00,0.0,WeatherDisplay:10.37,2013-12-05 02:03:00,
2013-12-04 20:08:00,41.6,32.9,29.88,North,350,8.8,12.7,71,0.00,CLR,,0.00,0.0,WeatherDisplay:10.37,2013-12-05 02:08:00,
2013-12-04 20:13:00,41.4,32.7,29.88,NNE,23,6.4,11.5,71,0.00,CLR,,0.00,0.0,WeatherDisplay:10.37,2013-12-05 02:13:00,
2013-12-04 20:18:00,41.3,32.6,29.88,NE,34,8.5,15.0,71,0.00,CLR,,0.00,0.0,WeatherDisplay:10.37,2013-12-05 02:18:00,
2013-12-04 20:23:00,41.0,32.7,29.88,NNE,27,5.8,11.5,72,0.00,CLR,,0.00,0.0,WeatherDisplay:10.37,2013-12-05 02:23:00,
2013-12-04 20:28:00,40.7,32.4,29.88,NNE,15,7.1,13.0,72,0.00,CLR,,0.00,0.0,WeatherDisplay:10.37,2013-12-05 02:28:00,
2013-12-04 20:33:00,40.6,32.3,29.88,NNE,18,7.5,11.5,72,0.00,CLR,,0.00,0.0,WeatherDisplay:10.37,2013-12-05 02:33:00,
2013-12-04 20:38:00,40.4,32.1,29.89,North,6,12.5,20.7,72,0.00,CLR,,0.00,0.0,WeatherDisplay:10.37,2013-12-05 02:38:00,
2013-12-04 20:43:00,40.3,32.3,29.89,NNE,16,4.9,13.8,73,0.00,CLR,,0.00,0.0,WeatherDisplay:10.37,2013-12-05 02:43:00,
2013-12-04 20:48:00,40.2,31.9,29.89,NE,41,10.1,17.3,72,0.00,CLR,,0.00,0.0,WeatherDisplay:10.37,2013-12-05 02:48:00,
2013-12-04 20:53:00,40.0,32.0,29.89,NE,48,11.8,13.8,73,0.00,CLR,,0.00,0.0,WeatherDisplay:10.37,2013-12-05 02:53:00,
2013-12-04 20:58:00,39.7,32.1,29.89,ENE,62,8.2,16.1,74,0.00,CLR,,0.00,0.0,WeatherDisplay:10.37,2013-12-05 02:58:00,
2013-12-04 21:03:00,39.7,32.1,29.90,North,6,9.4,18.0,74,0.00,CLR,,0.00,0.0,WeatherDisplay:10.37,2013-12-05 03:03:00,
2013-12-04 21:08:00,39.7,31.8,29.91,NNE,28,9.9,19.6,73,0.00,CLR,,0.00,0.0,WeatherDisplay:10.37,2013-12-05 03:08:00,
2013-12-04 21:13:00,39.7,32.1,29.92,NNE,20,7.8,11.5,74,0.00,CLR,,0.00,0.0,WeatherDisplay:10.37,2013-12-05 03:13:00,
2013-12-04 21:18:00,39.6,32.0,29.92,NNE,29,4.1,9.2,74,0.00,SCT,,0.00,0.0,WeatherDisplay:10.37,2013-12-05 03:18:00,
2013-12-04 21:23:00,39.3,31.4,29.93,North,1,6.8,13.8,73,0.00,SCT,,0.00,0.0,WeatherDisplay:10.37,2013-12-05 03:23:00,
2013-12-04 21:28:00,39.1,31.2,29.93,NNE,14,8.2,13.8,73,0.00,SCT,,0.00,0.0,WeatherDisplay:10.37,2013-12-05 03:28:00,
2013-12-04 21:33:00,38.9,30.6,29.93,North,10,9.1,13.0,72,0.00,BKN,,0.00,0.0,WeatherDisplay:10.37,2013-12-05 03:33:00,
2013-12-04 21:38:00,38.8,30.9,29.94,North,356,10.4,16.1,73,0.00,BKN,,0.00,0.0,WeatherDisplay:10.37,2013-12-05 03:38:00,
2013-12-04 21:43:00,38.6,30.4,29.94,NNE,18,7.0,12.7,72,0.00,BKN,,0.00,0.0,WeatherDisplay:10.37,2013-12-05 03:43:00,
2013-12-04 21:48:00,38.3,30.1,29.94,North,351,11.3,18.4,72,0.00,OVC,,0.00,0.0,WeatherDisplay:10.37,2013-12-05 03:48:00,
2013-12-04 21:53:00,38.1,29.5,29.94,North,6,10.0,16.1,71,0.00,OVC,,0.00,0.0,WeatherDisplay:10.37,2013-12-05 03:53:00,
2013-12-04 21:58:00,38.0,29.4,29.95,NNE,23,10.7,18.4,71,0.00,OVC,,0.00,0.0,WeatherDisplay:10.37,2013-12-05 03:58:00,
2013-12-04 22:03:00,37.7,29.1,29.95,North,6,10.0,16.1,71,0.00,OVC,,0.00,0.0,WeatherDisplay:10.37,2013-12-05 04:03:00,
2013-12-04 22:08:00,37.5,28.9,29.96,NNE,14,8.5,15.0,71,0.00,OVC,,0.00,0.0,WeatherDisplay:10.37,2013-12-05 04:08:00,
2013-12-04 22:13:00,37.4,29.2,29.96,NNE,16,9.6,16.1,72,0.00,OVC,,0.00,0.0,WeatherDisplay:10.37,2013-12-05 04:13:00,
2013-12-04 22:18:00,37.4,29.2,29.96,NNE,21,8.6,13.8,72,0.00,OVC,,0.00,0.0,WeatherDisplay:10.37,2013-12-05 04:18:00,
2013-12-04 22:23:00,37.2,29.0,29.96,North,6,8.7,15.0,72,0.00,OVC,,0.00,0.0,WeatherDisplay:10.37,2013-12-05 04:23:00,
2013-12-04 22:28:00,37.0,28.8,29.97,North,356,9.8,13.8,72,0.00,OVC,,0.00,0.0,WeatherDisplay:10.37,2013-12-05 04:28:00,
2013-12-04 22:33:00,36.8,28.6,29.97,NNE,30,13.1,19.6,72,0.00,OVC,,0.00,0.0,WeatherDisplay:10.37,2013-12-05 04:33:00,
2013-12-04 22:38:00,36.7,28.5,29.97,North,1,9.1,15.0,72,0.00,OVC,,0.00,0.0,WeatherDisplay:10.37,2013-12-05 04:38:00,
2013-12-04 22:43:00,36.6,28.4,29.97,North,356,8.8,12.7,72,0.00,OVC,,0.00,0.0,WeatherDisplay:10.37,2013-12-05 04:43:00,
2013-12-04 22:48:00,36.5,28.7,29.97,NNE,25,9.0,13.8,73,0.00,OVC,,0.00,0.0,WeatherDisplay:10.37,2013-12-05 04:48:00,
2013-12-04 22:53:00,36.2,28.0,29.97,NNE,16,11.7,21.9,72,0.00,OVC,,0.00,0.0,WeatherDisplay:10.37,2013-12-05 04:53:00,
2013-12-04 22:58:00,35.9,28.1,29.97,NNE,16,8.4,12.7,73,0.00,OVC,,0.00,0.0,WeatherDisplay:10.37,2013-12-05 04:58:00,
2013-12-04 23:01:00,35.8,28.0,29.97,NNE,22,9.9,16.1,73,0.00,OVC,,0.00,0.0,WeatherDisplay:10.37,2013-12-05 05:01:00,
2013-12-04 23:06:00,35.7,27.9,29.97,North,1,8.9,13.8,73,0.00,OVC,,0.00,0.0,WeatherDisplay:10.37,2013-12-05 05:06:00,
2013-12-04 23:11:00,35.6,27.8,29.98,NNW,341,11.6,13.8,73,0.00,OVC,,0.00,0.0,WeatherDisplay:10.37,2013-12-05 05:11:00,
2013-12-04 23:16:00,35.6,27.8,29.98,North,10,7.2,11.5,73,0.00,OVC,,0.00,0.0,WeatherDisplay:10.37,2013-12-05 05:16:00,
2013-12-04 23:21:00,35.6,27.5,29.98,NNE,29,10.4,17.3,72,0.00,OVC,,0.00,0.0,WeatherDisplay:10.37,2013-12-05 05:21:00,
2013-12-04 23:26:00,35.5,27.4,29.98,North,6,8.6,16.1,72,0.00,OVC,,0.00,0.0,WeatherDisplay:10.37,2013-12-05 05:26:00,
2013-12-04 23:31:00,35.2,26.7,29.98,North,1,12.2,17.3,71,0.00,OVC,,0.00,0.0,WeatherDisplay:10.37,2013-12-05 05:31:00,
2013-12-04 23:36:00,35.1,27.0,29.98,North,356,9.1,15.0,72,0.00,OVC,,0.00,0.0,WeatherDisplay:10.37,2013-12-05 05:36:00,
2013-12-04 23:41:00,35.0,26.9,29.99,North,356,10.4,15.0,72,0.00,OVC,,0.00,0.0,WeatherDisplay:10.37,2013-12-05 05:41:00,
2013-12-04 23:46:00,34.9,26.8,30.00,NNW,335,12.3,18.4,72,0.00,OVC,,0.00,0.0,WeatherDisplay:10.37,2013-12-05 05:46:00,
2013-12-04 23:51:00,34.8,26.4,30.00,North,1,9.7,16.1,71,0.00,OVC,,0.00,0.0,WeatherDisplay:10.37,2013-12-05 05:51:00,
2013-12-04 23:56:00,34.8,26.4,30.00,NNE,17,9.6,18.4,71,0.00,OVC,,0.00,0.0,WeatherDisplay:10.37,2013-12-05 05:56:00,